Station FRXM3 - 8447412 - Fall River Visibility, MA Image indicating link to RSS feed of recent meteorological observations for station FRXM3


Conditions at FRXM3 as of
(9:30 pm EDT on 07/13/2024)
0130 GMT on 07/14/2024:
     

Click on the graph icon in the table below to see a time series plot of the last five days of that observation.

5-day plot - Air Temperature Air Temperature (ATMP): 75.0 °F
5-day plot - Dew Point Dew Point (DEWP): 72.9 °F
5-day plot - Visibility Visibility (VIS): 5.9 nmi
NOS Water Level Observation Network Water Level
Previous observations
TIME
(EDT)
5-day plot - Wind Direction
WDIR
 
5-day plot - Wind Speed
WSPD
kts
5-day plot - Wind Gust
GST
kts
5-day plot - Wave Height
WVHT
ft
5-day plot - Dominant Wave Period
DPD
sec
5-day plot - Average Wave Period
APD
sec
5-day plot - Mean Wave Direction
MWD
 
5-day plot - Atmospheric Pressure
PRES
in
5-day plot - Pressure Tendency
PTDY
in
5-day plot - Air Temperature
ATMP
°F
5-day plot - Water Temperature
WTMP
°F
5-day plot - Dew Point
DEWP
°F
5-day plot - Salinity
SAL
psu
5-day plot - Visibility
VIS
nmi
5-day plot - Tide (above MLLW)
TIDE
ft
2024-07-13 09:24 pm--------- 75.0- 72.9- 5.9-
2024-07-13 09:00 pm--------- 75.0- 73.0- 5.9-
2024-07-13 08:54 pm--------- 75.0- 72.9- 5.9-
2024-07-13 08:30 pm--------- 74.8- 72.9- 5.9-
2024-07-13 08:24 pm--------- 74.8- 72.9- 5.9-
2024-07-13 08:18 pm--------- 74.8- 72.7- 5.9-
2024-07-13 08:12 pm--------- 75.0- 72.9- 5.9-
2024-07-13 08:06 pm--------- 75.0- 72.9- 5.9-
2024-07-13 08:00 pm--------- 75.0- 72.9- 5.9-
2024-07-13 07:54 pm--------- 75.0- 72.7- 5.9-
2024-07-13 07:48 pm--------- 75.2- 72.7- 5.9-
2024-07-13 07:42 pm--------- 75.4- 72.5- 5.9-
2024-07-13 07:36 pm--------- 75.4- 72.7- 5.9-
2024-07-13 07:30 pm--------- 75.2- 72.7- 5.9-
2024-07-13 07:24 pm--------- 75.2- 72.7- 5.9-
2024-07-13 07:18 pm--------- 75.2- 72.5- 5.9-
2024-07-13 07:00 pm--------- 76.6- 72.5- 5.9-
2024-07-13 06:54 pm--------- 77.0- 72.7- 5.9-
2024-07-13 06:48 pm--------- 77.4- 72.7- 5.9-
2024-07-13 06:42 pm--------- 77.9- 72.9- 5.9-
2024-07-13 06:36 pm--------- 77.9- 72.7- 5.9-
2024-07-13 06:18 pm--------- 78.1- 73.8- 5.9-
2024-07-13 06:12 pm--------- 77.9- 73.8- 5.9-
2024-07-13 06:06 pm--------- 77.9- 73.8- 5.9-
2024-07-13 06:00 pm--------- 78.6--- 5.9-
2024-07-13 05:54 pm--------- 78.4--- 5.9-
2024-07-13 05:48 pm--------- 77.9- 73.8- 5.9-
2024-07-13 05:42 pm--------- 77.7- 73.6- 5.9-
2024-07-13 05:36 pm--------- 77.7- 73.8- 5.9-
2024-07-13 05:18 pm--------- 77.2- 73.8- 5.9-
2024-07-13 05:12 pm--------- 77.0- 74.1- 5.9-
2024-07-13 05:06 pm--------- 76.8- 73.9- 5.9-
2024-07-13 05:00 pm--------- 76.8- 74.1- 5.9-
2024-07-13 04:54 pm--------- 76.8- 73.9- 5.9-
2024-07-13 04:48 pm--------- 77.0- 73.8- 5.9-
2024-07-13 04:42 pm--------- 77.0- 73.6- 5.9-
2024-07-13 04:36 pm--------- 77.0- 73.6- 5.9-
2024-07-13 04:18 pm--------- 77.4- 73.6- 5.9-
2024-07-13 04:12 pm--------- 77.4- 73.8- 5.9-
2024-07-13 04:06 pm--------- 77.4- 73.9- 5.9-
2024-07-13 03:30 pm--------- 77.2- 74.3- 5.9-
2024-07-13 03:24 pm--------- 77.2- 74.3- 5.9-
2024-07-13 03:18 pm--------- 77.4- 74.5- 5.9-
2024-07-13 03:12 pm--------- 77.0- 74.3- 5.9-
2024-07-13 03:06 pm--------- 77.0- 74.3- 5.9-
2024-07-13 02:48 pm--------- 76.6- 74.3- 5.9-
2024-07-13 02:42 pm--------- 76.5- 74.3- 5.9-
2024-07-13 02:36 pm--------- 76.5- 74.5- 5.9-
2024-07-13 02:30 pm--------- 76.5- 74.5- 5.9-
2024-07-13 02:24 pm--------- 76.3- 74.5- 5.9-
2024-07-13 02:18 pm--------- 76.3- 74.7- 5.9-
2024-07-13 02:12 pm--------- 75.9- 74.5- 5.9-
2024-07-13 02:06 pm--------- 75.7- 74.3- 5.9-
2024-07-13 02:00 pm--------- 75.6- 74.3- 5.9-
2024-07-13 01:54 pm--------- 75.6- 74.3- 3.2-
2024-07-13 01:30 pm--------- 75.6- 74.1- 2.2-
2024-07-13 01:24 pm--------- 75.6- 73.9- 2.4-
2024-07-13 01:18 pm--------- 75.6- 73.8- 2.2-
2024-07-13 01:12 pm--------- 75.6- 73.6- 5.9-
2024-07-13 01:06 pm--------- 75.7- 73.9- 5.9-
2024-07-13 12:48 pm--------- 75.6- 73.8- 5.9-
2024-07-13 12:42 pm--------- 75.4- 73.6- 4.3-
2024-07-13 12:36 pm--------- 75.2- 73.2- 1.5-
2024-07-13 12:30 pm--------- 76.3- 74.1- 2.4-
2024-07-13 12:24 pm--------- 76.3- 73.8- 5.9-
2024-07-13 12:00 pm--------- 75.7- 72.5- 5.9-
2024-07-13 11:54 am--------- 75.7- 73.4- 5.9-
2024-07-13 11:48 am--------- 75.2- 73.6- 5.9-
2024-07-13 11:42 am--------- 75.4- 74.1- 5.9-
2024-07-13 11:36 am--------- 75.0- 73.9- 5.9-
2024-07-13 11:30 am--------- 74.8- 73.8- 5.9-
2024-07-13 11:24 am--------- 74.7- 73.6- 3.2-
2024-07-13 11:18 am--------- 74.7- 73.6- 3.2-
2024-07-13 11:12 am--------- 74.7- 73.6- 3.2-
2024-07-13 11:06 am--------- 74.7- 73.6- 3.2-
2024-07-13 11:00 am--------- 74.7- 73.6- 5.9-
2024-07-13 10:54 am--------- 74.5- 73.4- 3.2-
2024-07-13 10:48 am--------- 74.5- 73.2- 3.2-
2024-07-13 10:42 am--------- 74.7- 73.4- 3.2-
2024-07-13 10:36 am--------- 74.5- 73.0- 3.2-
2024-07-13 10:30 am--------- 74.5- 73.0- 4.3-
2024-07-13 10:24 am--------- 74.3- 72.9- 4.3-
2024-07-13 10:18 am--------- 74.3- 73.2- 5.9-
2024-07-13 10:12 am--------- 74.7- 73.6- 5.9-
2024-07-13 10:06 am--------- 75.0- 73.9- 5.9-
2024-07-13 10:00 am--------- 75.2- 73.9- 1.5-
2024-07-13 09:54 am--------- 75.6- 74.3- 1.9-
2024-07-13 09:48 am--------- 75.6- 74.1- 3.2-
2024-07-13 09:42 am--------- 75.4- 73.8- 3.2-
2024-07-13 09:36 am--------- 75.7- 73.8- 2.2-
2024-07-13 09:30 am--------- 76.3- 73.6- 2.2-
2024-07-13 09:24 am--------- 76.6- 73.4- 5.9-
2024-07-13 09:18 am--------- 76.6- 73.4- 5.9-
2024-07-13 09:12 am--------- 76.8- 73.4- 5.9-
2024-07-13 09:06 am--------- 76.8- 73.6- 5.9-
2024-07-13 09:00 am--------- 77.0- 73.9- 5.9-
2024-07-13 08:54 am--------- 76.8- 73.8- 5.9-
2024-07-13 08:48 am--------- 76.8- 73.8- 5.9-
2024-07-13 08:42 am--------- 76.5- 73.6- 5.9-
2024-07-13 08:36 am--------- 76.3- 73.6- 5.9-
2024-07-13 08:30 am--------- 76.3- 73.6- 5.9-
2024-07-13 08:24 am--------- 76.1- 73.6- 5.9-
2024-07-13 08:18 am--------- 75.9- 73.4- 5.9-
2024-07-13 08:12 am--------- 75.7- 73.2- 5.9-
2024-07-13 08:06 am--------- 75.9- 73.6- 5.9-
2024-07-13 08:00 am--------- 75.7- 73.6- 5.9-
2024-07-13 07:54 am--------- 75.9- 73.8- 5.9-
2024-07-13 07:18 am--------- 75.4- 73.9- 5.9-
2024-07-13 07:12 am--------- 75.4- 73.9- 5.9-
2024-07-13 07:06 am--------- 75.4- 73.9- 5.9-
2024-07-13 07:00 am--------- 75.4- 74.1- 5.9-
2024-07-13 06:54 am--------- 75.6- 74.3- 5.9-
2024-07-13 06:48 am--------- 75.4- 74.1- 5.9-
2024-07-13 06:42 am--------- 75.4- 73.9- 5.9-
2024-07-13 06:36 am--------- 75.4- 73.9- 5.9-
2024-07-13 06:30 am--------- 75.2- 73.6- 5.9-
2024-07-13 06:24 am--------- 75.2- 73.4- 5.9-
2024-07-13 06:18 am--------- 75.0- 73.0- 5.9-
2024-07-13 06:12 am--------- 75.0- 73.0- 5.9-
2024-07-13 06:06 am--------- 75.0- 72.9- 5.9-
2024-07-13 05:30 am--------- 74.3- 70.7- 5.9-
2024-07-13 05:24 am--------- 74.5- 70.3- 5.9-
2024-07-13 05:18 am--------- 74.7- 70.9- 5.9-
2024-07-13 05:12 am--------- 74.8- 73.2- 5.9-
2024-07-13 05:06 am--------- 75.7- 74.5- 4.9-
2024-07-13 05:00 am--------- 75.9- 74.7- 2.6-
2024-07-13 04:54 am--------- 75.9- 74.7- 5.9-
2024-07-13 04:48 am--------- 75.9- 74.5- 5.9-
2024-07-13 04:42 am--------- 76.1- 74.7- 5.9-
2024-07-13 04:36 am--------- 76.1- 74.7- 5.9-
2024-07-13 04:30 am--------- 76.1- 74.5- 5.9-
2024-07-13 04:24 am--------- 76.3- 74.5- 5.9-
2024-07-13 04:18 am--------- 76.5- 74.5- 5.9-
2024-07-13 04:12 am--------- 76.5- 74.5- 5.9-
2024-07-13 04:06 am--------- 76.6- 74.5- 5.9-
2024-07-13 04:00 am--------- 76.6- 74.5- 5.9-
2024-07-13 03:54 am--------- 76.6- 74.5- 5.9-
2024-07-13 03:48 am--------- 76.6- 74.5- 5.9-
2024-07-13 03:42 am--------- 76.5- 74.5- 5.9-
2024-07-13 03:36 am--------- 76.5- 74.3- 5.9-
2024-07-13 03:30 am--------- 76.5- 73.9- 5.9-
2024-07-13 03:24 am--------- 76.3- 73.8- 5.9-
2024-07-13 03:18 am--------- 76.3- 73.6- 5.9-
2024-07-13 03:12 am--------- 76.1- 73.4- 5.9-
2024-07-13 03:06 am--------- 76.1- 73.0- 5.9-
2024-07-13 03:00 am--------- 75.7- 72.9- 5.9-
2024-07-13 02:54 am--------- 75.6- 72.9- 5.9-
2024-07-13 02:48 am--------- 75.6- 72.9- 5.9-
2024-07-13 02:42 am--------- 75.6- 73.0- 5.9-
2024-07-13 02:36 am--------- 75.6- 73.2- 5.9-
2024-07-13 02:30 am--------- 75.7- 73.4- 5.9-
2024-07-13 02:24 am--------- 75.7- 73.6- 5.9-
2024-07-13 02:18 am--------- 75.7- 73.6- 5.9-
2024-07-13 02:12 am--------- 75.7- 73.6- 5.9-
2024-07-13 02:06 am--------- 75.7- 73.6- 5.9-
2024-07-13 02:00 am--------- 75.9- 73.8- 5.9-
2024-07-13 01:54 am--------- 75.9- 73.8- 5.9-
2024-07-13 01:48 am--------- 76.1- 73.8- 5.9-
2024-07-13 01:42 am--------- 76.3- 73.9- 5.9-
2024-07-13 01:36 am--------- 76.3- 73.8- 5.9-
2024-07-13 01:30 am--------- 76.5- 73.9- 5.9-
2024-07-13 01:24 am--------- 76.5- 73.9- 5.9-
2024-07-13 01:18 am--------- 76.6- 74.1- 5.9-
2024-07-13 01:12 am--------- 76.6- 74.3- 5.9-
2024-07-13 01:06 am--------- 76.6- 74.1- 5.9-
2024-07-13 01:00 am--------- 76.8- 74.3- 5.9-
2024-07-13 12:54 am--------- 76.8- 74.3- 5.9-
2024-07-13 12:48 am--------- 76.8- 74.3- 5.9-
2024-07-13 12:42 am--------- 76.6- 74.1- 5.9-
2024-07-13 12:36 am--------- 76.6- 74.3- 5.9-
2024-07-13 12:30 am--------- 76.6- 74.3- 5.9-
2024-07-13 12:24 am--------- 76.6- 74.3- 5.9-
2024-07-13 12:18 am--------- 76.6- 74.3- 5.9-
2024-07-13 12:12 am--------- 76.8- 74.7- 5.9-
2024-07-13 12:06 am--------- 76.8- 74.7- 5.9-
2024-07-13 12:00 am--------- 76.8- 74.7- 5.9-
2024-07-12 11:54 pm--------- 76.8- 74.5- 5.9-
2024-07-12 11:48 pm--------- 76.6- 74.5- 5.9-
2024-07-12 11:42 pm--------- 76.8- 74.5- 5.9-
2024-07-12 11:36 pm--------- 76.8- 74.1- 5.9-
2024-07-12 11:30 pm--------- 77.0- 74.3- 5.9-
2024-07-12 11:24 pm--------- 77.2- 74.3- 5.9-
2024-07-12 11:18 pm--------- 77.2- 74.3- 5.9-
2024-07-12 11:12 pm--------- 77.2- 74.3- 5.9-
2024-07-12 11:06 pm--------- 77.4- 74.5- 5.9-
2024-07-12 11:00 pm--------- 77.2- 74.5- 5.9-
2024-07-12 10:54 pm--------- 77.2- 74.3- 5.9-
2024-07-12 10:48 pm--------- 77.2- 74.3- 5.9-
2024-07-12 10:42 pm--------- 77.2- 74.3- 5.9-
2024-07-12 10:36 pm--------- 77.2- 74.3- 5.9-
2024-07-12 10:30 pm--------- 77.4- 74.5- 5.9-
2024-07-12 10:24 pm--------- 77.4- 74.5- 5.9-
2024-07-12 10:18 pm--------- 77.4- 74.5- 5.9-
2024-07-12 10:12 pm--------- 77.4- 74.5- 5.9-
2024-07-12 10:06 pm--------- 77.5- 74.7- 5.9-
2024-07-12 10:00 pm--------- 77.5- 74.5- 5.9-
2024-07-12 09:54 pm--------- 77.5- 74.5- 5.9-